EHI
0 0 0 0 0 0 0 0 0 0 0 0 0 0 0 0 0 0 0 0 0 0 0 0 0 0 0 0 0 0 0 0 0 0 0 0 0 0
0 0 0 0 0 0 0 0 0 0 0 0 0 0 0 0 0 0 0 0 0 0 0 0 0 0 0 0 0 0 0 0 0 0 0 0 0 0
0 0 0 0 0 0 0 0 0 0 0 0 0 0 0 0 0 0 0 0 0 0 0 0 0 0 0 0 0 0 0 0 0 0 0 0 0 0
0 0 0 0 0 0 0 0 0 0 0 0 0 0 0 0 0 0 0 0 0 0 0 0 0 0 0 0 0 0 0 0 0 0 0 0 0 0
0 0 0 0 0 0 0 0 0 0 0 0 0 0 0 0 0 0 0 0 0 0 0 0 0 0 0 0 0 0 0 0 0 0 0 0 0 0
0 0 0 0 0 0 0 0 0 0 0 0 0 0 0 0 0 0 0 0 0 0 0 0 0 0 0 0 0 0 0 0 0 0 0 0 0 0
0 0 0 0 0 0 0 0 0 0 0 0 0 0 0 0 0 0 0 0 0 0 0 0 0 0 0 0 0 0 0 0 0 0 0 0 0 0
0 0 0 0 0 0 0 0 0 0 0 0 0 0 0 0 0 0 0 0 0 0 0 0 0 0 0 0 0 0 0 0 0 0 0 0 0 0
0 0 0 0 0 0 0 0 0 0 0 0 0 0 0 0 0 0 0 0 0 0 0 0 0 0 0 0 0 0 0 0 0 0 0 0 0 0
0 0 0 0 0 0 0 0 0 0 0 0 0 0 0 0 0 0 0 0 0 0 0 0 0 0 0 0 0 0 0 0 0 0 0 0 0 0
0 0 0 0 0 0 0 0 0 0 0 0 0 0 0 0 0 0 0 0 0 0 0 0 0 0 0 0 0 0 0 0 0 0 0 0 0 0
0 0 0 0 0 0 0 0 0 0 0 0 0 0 0 0 0 0 0 0 0 0 0 0 0 0 0 0 0 0 0 0 0 0 0 0 0 0
0 0 0 0 0 0 0 0 0 0 0 0 0 0 0 0 0 0 0 0 0 0 0 0 0 0 0 0 0 0 0 0 0 0 0 0 0 0
0 0 0 0 0 0 0 0 0 0 0 0 0 0 0 0 0 0 0 0 0 0 0 0 0 0 0 0 0 0 0 0 0 0 0 0 0 0
0 0 0 0 0 0 0 0 0 0 0 0 0 0 0 0 0 0 0 0 0 0 0 0 0 0 0 0 0 0 0 0 0 0 0 0 0 0
0 0 0 0 0 0 0 0 0 0 0 0 0 0 0 0 0 0 0 0 0 0 0 0 0 0 0 0 0 0 0 0 0 0 0 0 0 0
0 0 0 0 0 0 0 0 0 0 0 0 0 0 0 0 0 0 0 0 0 0 0 0 0 0 0 0 0 0 0 0 0 0 0 0 0 0
0 0 0 0 0 0 0 0 0 0 0 0 0 0 0 0 0 0 0 0 0 0 0 0 0 0 0 0 0 0 0 0 0 0 0 0 0 0
0 0 0 0 0 0 0 0 0 0 0 0 0 0 0 0 0 0 0 0 0 0 0 0 0 0 0 0 0 0 0 0 0 0 0 0 0 0
0 0 0 0 0 0 0 0 0 0 0 0 0 0 0 0 0 0 0 0 0 0 0 0 0 0 0 0 0 0 0 0 0 0 0 0 0 0
0 0 0 0 0 0 0 0 0 0 0 0 0 0 0 0 0 0 0 0 0 0 0 0 0 0 0 0 0 0 0 0 0 0 0 0 0 0
0 0 0 0 0 0 0 0 0 0 0 0 0 0 0 0 0 0 0 0 0 0 0 0 0 0 0 0 0 0 0 0 0 0 0 0 0 0
0 0 0 0 0 0 0 0 0 0 0 0 0 0 0 0 0 0 0 0 0 0 0 0 0 0 0 0 0 0 0 0 0 0 0 0 0 0
Wind_Speed
9 9 7 6 6 5 5 4 2 2 2 1 1 1 1 2 4 1 2 5 7 10 13 13 13 14 15 15 16 17 17 18 19 19 20 21 21 22
7 8 7 5 5 4 4 3 2 2 1 2 2 2 2 2 1 2 3 8 10 12 14 14 13 15 16 17 17 17 17 17 18 19 20 20 21 21
6 6 6 5 4 4 3 3 2 2 2 2 2 2 3 3 3 3 4 5 5 9 11 12 14 16 17 17 18 17 17 18 18 18 19 19 20 20
5 4 4 4 4 3 3 3 2 1 1 3 3 3 4 4 4 4 5 6 4 8 9 12 14 15 16 17 18 17 17 17 17 18 18 19 19 20
3 3 2 3 3 2 3 2 3 3 2 3 4 4 4 4 3 4 5 4 6 8 8 9 12 14 16 17 17 16 15 14 15 16 17 18 19 19
2 2 2 2 3 4 4 3 4 4 4 4 4 4 4 3 2 3 4 4 5 6 6 6 8 11 13 14 14 14 12 12 13 14 15 16 17 18
3 3 2 1 2 2 3 3 4 4 5 5 5 4 4 4 4 3 5 5 5 4 3 5 5 4 4 7 8 8 9 11 12 13 13 14 14 16
4 4 4 2 3 5 6 6 6 5 5 5 6 5 6 5 4 5 4 5 4 3 3 5 4 4 4 3 3 5 8 10 11 12 13 13 14 14
3 3 5 5 3 4 5 7 9 11 12 8 7 8 7 5 5 6 5 6 6 5 4 5 4 4 4 2 4 6 8 10 11 12 12 12 13 14
3 2 2 2 5 6 7 7 7 6 6 6 7 7 7 5 4 5 7 7 7 4 3 4 4 4 5 2 5 7 8 9 10 11 11 12 12 13
4 2 3 3 4 5 6 7 7 6 7 7 9 10 12 13 8 4 6 5 6 5 3 3 3 4 4 2 2 5 7 8 9 10 10 10 11 11
4 3 4 4 3 5 6 7 7 7 8 10 8 9 9 10 11 8 6 5 5 4 2 3 3 3 4 3 3 3 4 6 8 9 9 9 9 6
6 4 2 3 6 8 7 6 7 8 8 8 7 6 5 5 5 5 6 5 5 4 3 3 3 3 2 3 3 3 3 3 4 4 5 6 8 6
6 5 4 7 11 12 8 8 10 9 6 6 5 5 5 4 4 4 4 4 5 5 4 2 2 2 3 3 3 4 4 3 3 4 3 4 5 6
6 10 12 13 11 8 6 9 8 5 5 5 5 5 5 4 4 3 3 2 2 2 1 1 1 2 2 3 3 3 4 4 4 4 3 3 3 4
7 11 12 10 7 7 8 5 3 4 4 4 5 5 4 4 4 2 2 2 1 1 1 0 1 1 2 4 3 4 4 4 4 4 3 3 3 4
9 7 5 4 4 4 3 3 3 3 3 4 4 4 4 4 3 2 1 2 2 2 1 1 0 2 3 2 4 5 4 4 4 4 3 3 3 4
7 5 5 4 4 4 4 4 3 3 3 3 3 4 4 4 3 3 2 2 2 2 2 2 1 0 0 2 2 5 5 4 4 4 3 2 3 3
4 3 4 4 4 4 4 4 4 4 4 4 4 4 4 4 4 3 2 2 2 2 2 2 2 3 3 3 1 1 4 5 5 4 3 2 2 2
3 3 4 4 4 4 4 5 5 4 5 4 4 5 5 4 4 4 2 2 2 1 1 2 2 2 2 2 1 1 1 3 4 5 4 1 1 0
5 4 4 4 4 4 4 5 5 5 5 5 5 5 5 5 5 4 3 4 3 2 1 1 1 2 2 1 1 0 1 1 2 2 4 3 2 3
6 6 6 5 5 6 6 6 6 6 7 6 6 6 5 5 5 5 4 4 3 3 1 1 1 1 1 0 0 1 1 2 2 0 2 2 2 3
5 6 6 6 7 7 7 8 8 7 7 8 8 8 7 5 4 4 4 4 4 5 3 2 1 1 1 1 1 1 2 2 2 2 2 2 2 2
Wind_Direction
52 49 48 38 33 32 34 37 49 34 6 0 17 66 89 114 160 220 265 270 253 241 244 250 259 268 274 282 288 292 293 294 295 296 296 295 295 294
49 47 43 34 31 26 23 26 36 38 9 350 357 35 26 346 242 272 275 279 263 253 251 250 252 258 266 274 282 286 288 290 293 295 295 296 296 295
49 47 40 33 24 14 12 14 22 34 358 321 334 346 330 302 291 275 276 270 266 264 255 248 246 250 257 265 273 277 280 283 288 291 293 294 295 294
42 39 33 32 20 18 3 353 348 330 315 314 317 308 301 289 270 262 280 290 294 290 265 244 243 247 253 258 262 265 268 273 279 285 288 290 292 292
35 26 27 28 21 8 331 337 330 335 322 307 299 292 284 287 294 296 300 296 295 293 282 256 249 252 254 257 259 261 262 265 270 275 279 284 287 290
14 355 15 32 29 356 337 353 343 331 313 301 291 293 293 304 326 321 308 297 292 296 301 291 267 260 260 263 263 262 261 261 263 266 270 275 281 285
358 348 353 81 88 318 336 348 334 329 319 314 312 313 318 340 337 318 306 302 290 284 298 298 294 286 278 269 265 258 255 258 263 267 269 271 273 277
357 348 326 163 207 239 263 275 278 287 303 308 305 310 317 324 322 311 308 312 307 311 318 298 295 292 283 275 226 231 247 259 267 272 275 275 276 276
336 336 339 14 10 354 325 292 273 262 251 258 279 287 296 307 315 314 312 308 295 293 302 295 296 296 294 293 200 229 251 264 274 281 284 285 283 282
311 309 323 0 26 4 332 319 309 297 274 250 249 263 277 291 302 295 291 292 286 286 299 292 300 305 304 289 219 240 261 274 283 288 291 293 294 292
327 359 359 47 56 355 323 314 314 315 314 301 271 267 273 277 272 282 285 294 302 307 311 290 301 310 300 305 273 263 276 279 284 289 293 299 305 306
353 28 62 37 357 331 317 314 315 324 329 319 303 283 272 267 258 236 252 276 292 301 322 318 307 325 313 310 318 307 294 293 293 296 301 307 317 319
344 350 35 344 319 308 295 281 293 310 305 298 298 298 292 281 269 243 230 241 265 278 300 326 310 320 300 297 305 320 330 330 325 316 313 318 326 331
329 339 337 313 309 303 292 285 302 308 293 301 309 308 304 298 284 273 255 244 243 252 271 293 283 301 307 308 308 318 327 336 337 336 340 345 343 347
319 320 311 305 305 301 299 304 305 294 302 311 311 307 299 292 290 294 296 280 275 270 264 286 303 314 320 318 321 326 325 328 337 339 350 9 12 9
340 320 313 310 305 299 305 303 285 293 301 297 297 299 309 316 316 316 324 335 339 317 322 28 91 25 352 344 344 338 339 329 330 338 350 23 31 31
325 310 320 337 340 338 335 326 312 311 309 299 302 312 319 319 320 330 345 358 2 354 2 4 147 137 111 23 349 344 342 340 335 336 350 23 39 34
317 319 336 348 354 354 351 341 330 329 319 317 324 330 336 335 332 341 8 19 20 10 9 5 3 341 170 99 33 342 342 341 337 342 357 15 25 30
307 327 347 350 355 349 346 342 337 339 341 345 353 346 340 339 338 342 11 14 32 21 7 13 21 15 11 3 353 37 345 337 342 351 2 17 22 14
356 358 355 351 349 342 343 342 341 350 353 350 353 344 338 339 339 341 4 9 18 37 30 31 35 26 11 336 328 3 33 351 343 345 344 359 69 188
7 357 349 348 346 348 353 348 348 355 356 352 348 340 337 337 340 349 6 12 6 23 30 16 251 220 238 270 353 327 155 96 348 335 334 348 13 21
10 356 349 357 360 1 1 356 359 5 4 356 345 337 335 338 346 358 8 9 3 358 6 312 247 235 235 161 2 270 227 190 191 201 50 24 11 18
10 352 350 7 11 6 2 359 9 10 3 352 343 335 333 340 347 356 5 15 7 356 352 351 331 299 290 214 206 231 223 207 191 190 190 195 180 215